New Castle, PA

3:53 PM EDT on September 24, 2017 (GMT -0400)
New Castle Municipal

Weather History for KUCP - February, 2014

Change the Weather History Date:

Sunday, February 2, 2014

  Actual Average Record
Temperature  
Mean Temperature 32 °F -  
Max Temperature 42 °F 38 °F 63 °F (1989)
Min Temperature 22 °F 19 °F -21 °F (1961)
Degree Days  
Heating Degree Days 33    
Moisture  
Dew Point 29 °F    
Average Humidity 91    
Maximum Humidity 100    
Minimum Humidity 66    
Precipitation  
Precipitation 0.10 in - - ()
Sea Level Pressure  
Sea Level Pressure 30.07 in    
Wind  
Wind Speed 5 mph (NNW)    
Max Wind Speed 10 mph    
Max Gust Speed -    
Visibility 6 miles    
Events Rain , Snow    
Averages and records for this station are not official NWS values.
T = Trace of Precipitation, MM = Missing Value Source: NWS Daily Summary

Daily Weather History Graph

Daily Weather History Graph

Search for Another Location

Airport or City:

Trip Planner

Search our weather history database for the weather conditions in past years. The results will help you decide how hot, cold, wet, or windy it might be!

Date:

Astronomy

Feb. 02, 2014 Rise Set
Actual Time 7:31 AM EST 5:39 PM EST
Civil Twilight 7:02 AM EST 6:08 PM EST
Nautical Twilight 6:29 AM EST 6:41 PM EST
Astronomical Twilight 5:57 AM EST 7:14 PM EST
Moon 8:55 AM EST (2/2) 9:24 PM EST (2/2)
Length of Visible Light 11h 06m
Length of Day
10h 08m
Waxing Crescent, 11% of the Moon is Illuminated
Feb 2
Waxing Crescent
Feb 6
First Quarter
Feb 14
Full
Feb 22
Last Quarter
Mar 1
New

Hourly Weather History & Observations

Time (EST) Temp. Windchill Dew Point Humidity Pressure Visibility Wind Dir Wind Speed Gust Speed Precip Events Conditions
12:21 AM 42.8 °F 38.0 °F 32.0 °F 66% 29.90 in 10.0 mi WSW 8.1 mph - 0.00 in   Overcast
12:56 AM 42.8 °F 38.6 °F 35.6 °F 76% 29.90 in 10.0 mi WSW 6.9 mph - N/A   Overcast
1:38 AM 41.0 °F 37.1 °F 37.4 °F 87% 29.91 in 6.0 mi West 5.8 mph - N/A   Overcast
1:56 AM 39.9 °F 37.8 °F 38.8 °F 96% 29.98 in 4.0 mi WSW 3.5 mph - 0.00 in Rain Light Rain
2:42 AM 39.2 °F - 39.2 °F 100% 29.92 in 3.0 mi Calm Calm - 0.00 in Rain Light Rain
2:56 AM 39.9 °F 36.7 °F 38.8 °F 96% 29.99 in 3.0 mi West 4.6 mph - 0.01 in Rain Light Rain
3:41 AM 39.2 °F - 37.4 °F 93% 29.93 in 4.0 mi Calm Calm - 0.00 in Rain Light Rain
3:56 AM 39.2 °F - 37.4 °F 93% 29.93 in 3.0 mi Calm Calm - N/A Rain Light Rain
4:15 AM 37.4 °F - 35.6 °F 93% 29.94 in 4.0 mi Calm Calm - 0.01 in Rain Light Rain
4:28 AM 37.4 °F 33.8 °F 35.6 °F 93% 29.94 in 4.0 mi NNW 4.6 mph - 0.02 in Rain Light Rain
4:56 AM 34.9 °F - 34.9 °F 100% 30.00 in 7.0 mi Calm Calm - 0.04 in Rain Light Rain
5:56 AM 34.0 °F - 32.9 °F 96% 30.01 in 5.0 mi Calm Calm - 0.03 in Rain Light Rain
6:49 AM 33.8 °F 27.7 °F 32.0 °F 93% 29.97 in 10.0 mi NNW 6.9 mph - 0.00 in   Overcast
6:56 AM 32.0 °F 26.4 °F 32.0 °F 100% 29.98 in 10.0 mi NNW 5.8 mph - N/A   Overcast
7:17 AM 32.0 °F 27.5 °F 30.2 °F 93% 29.99 in 10.0 mi NNW 4.6 mph - 0.00 in   Overcast
7:37 AM 32.0 °F - 30.2 °F 93% 30.01 in 10.0 mi Calm Calm - 0.00 in   Overcast
7:56 AM 31.1 °F 26.4 °F 30.0 °F 96% 30.08 in 1.8 mi NNW 4.6 mph - 0.00 in Snow Light Snow
8:06 AM 30.2 °F 24.3 °F 30.2 °F 100% 30.02 in 2.5 mi NW 5.8 mph - 0.00 in Snow Light Snow
8:35 AM 30.2 °F 24.3 °F 30.2 °F 100% 30.03 in 1.5 mi North 5.8 mph - 0.01 in Snow Light Snow
8:43 AM 30.2 °F 24.3 °F 28.4 °F 93% 30.03 in 1.2 mi North 5.8 mph - 0.01 in Snow Light Snow
8:48 AM 30.2 °F 24.3 °F 28.4 °F 93% 30.03 in 1.0 mi North 5.8 mph - 0.01 in Snow Light Snow
8:56 AM 30.0 °F 23.2 °F 29.1 °F 96% 30.11 in 0.8 mi North 6.9 mph - 0.01 in Snow Light Snow
9:10 AM 30.2 °F 24.3 °F 28.4 °F 93% 30.04 in 1.2 mi North 5.8 mph - 0.00 in Snow Light Snow
9:17 AM 30.2 °F 24.3 °F 28.4 °F 93% 30.04 in 1.5 mi NNW 5.8 mph - 0.00 in Snow Light Snow
9:24 AM 30.2 °F 25.4 °F 28.4 °F 93% 30.04 in 2.5 mi North 4.6 mph - 0.00 in Snow Light Snow
9:32 AM 30.2 °F - 28.4 °F 93% 30.04 in 1.5 mi Calm Calm - 0.01 in Snow Light Snow
9:44 AM 30.2 °F - 28.4 °F 93% 30.04 in 2.0 mi Calm Calm - 0.01 in Snow Light Snow
9:56 AM 30.2 °F 25.4 °F 28.4 °F 93% 30.04 in 2.5 mi NNW 4.6 mph - N/A Snow Light Snow
10:04 AM 30.2 °F - 28.4 °F 93% 30.04 in 3.0 mi Calm Calm - 0.00 in Snow Light Snow
10:41 AM 30.2 °F 22.6 °F 28.4 °F 93% 30.05 in 10.0 mi NNW 8.1 mph - 0.01 in   Overcast
10:56 AM 30.0 °F 23.2 °F 29.1 °F 96% 30.12 in 10.0 mi NNW 6.9 mph - 0.01 in   Overcast
11:56 AM 30.0 °F 23.2 °F 28.0 °F 92% 30.12 in 10.0 mi NNW 6.9 mph - 0.00 in   Overcast
12:56 PM 28.4 °F 22.2 °F 26.6 °F 93% 30.05 in 4.0 mi NNW 5.8 mph - N/A   Overcast
1:11 PM 28.4 °F 22.2 °F 26.6 °F 93% 30.04 in 2.5 mi NNW 5.8 mph - 0.00 in Snow Light Snow
1:31 PM 28.4 °F 19.7 °F 26.6 °F 93% 30.05 in 3.0 mi NW 9.2 mph - 0.00 in Snow Light Snow
1:56 PM 29.1 °F 23.0 °F 27.1 °F 92% 30.14 in 5.0 mi NNW 5.8 mph - 0.00 in Snow Light Snow
2:21 PM 28.4 °F 22.2 °F 26.6 °F 93% 30.07 in 1.8 mi NNW 5.8 mph - 0.00 in Snow Light Snow
2:42 PM 28.4 °F 19.1 °F 26.6 °F 93% 30.06 in 2.0 mi North 10.4 mph - 0.00 in Snow Light Snow
2:56 PM 29.1 °F 21.3 °F 26.1 °F 88% 30.13 in 10.0 mi NNW 8.1 mph - 0.00 in   Overcast
3:47 PM 28.4 °F 19.7 °F 24.8 °F 86% 30.08 in 10.0 mi North 9.2 mph - 0.00 in   Overcast
3:56 PM 28.0 °F 20.0 °F 25.2 °F 89% 30.17 in 10.0 mi NNW 8.1 mph - 0.00 in   Overcast
4:56 PM 27.1 °F 18.2 °F 24.1 °F 88% 30.21 in 10.0 mi NNW 9.2 mph - N/A   Overcast
5:56 PM 27.1 °F 19.7 °F 23.0 °F 84% 30.24 in 10.0 mi North 6.9 mph - N/A   Overcast
6:56 PM 26.1 °F 16.2 °F 22.1 °F 85% 30.27 in 10.0 mi NNW 10.4 mph - N/A   Overcast
7:16 PM 26.6 °F 18.2 °F 21.2 °F 80% 30.18 in 10.0 mi NNW 8.1 mph - N/A   Overcast
7:42 PM 24.8 °F 16.1 °F 21.2 °F 86% 30.19 in 10.0 mi NNW 8.1 mph - N/A   Overcast
7:56 PM 25.2 °F 17.3 °F 21.0 °F 84% 30.27 in 10.0 mi North 6.9 mph - N/A   Overcast
8:56 PM 23.0 °F 14.7 °F 20.1 °F 89% 30.28 in 10.0 mi North 6.9 mph - N/A   Overcast
9:11 PM 23.0 °F 14.7 °F 19.4 °F 86% 30.20 in 10.0 mi NNW 6.9 mph - N/A   Overcast
9:56 PM 23.0 °F 13.9 °F 20.1 °F 89% 30.30 in 10.0 mi North 8.1 mph - N/A   Overcast
10:56 PM 22.1 °F 13.7 °F 19.0 °F 88% 30.30 in 4.0 mi North 6.9 mph - N/A   Overcast
11:56 PM 22.1 °F 17.4 °F 19.0 °F 88% 30.28 in 10.0 mi NNW 3.5 mph - N/A   Overcast